Location: Unspecified
(30.8073°N, 0.0000°E)
Time: 16:35:50
(UTC+00:00)

Envisat - Visible Passes

Search period start: 16 June 2019 00:00
Search period end: 26 June 2019 00:00
Orbit: 764 x 766 km, 98.1° (Epoch: 16 June)

Date Brightness Start Highest point End Pass type
(mag) Time Alt. Az. Time Alt. Az. Time Alt. Az.
17 Jun 5.8 19:48:57 10° SW 19:51:34 14° W 19:54:11 10° WNW visible
20 Jun 5.6 19:36:46 10° SW 19:40:15 19° W 19:43:45 10° NW visible
23 Jun 5.3 19:24:53 10° SSW 19:28:57 24° W 19:33:02 10° NW visible
25 Jun 5.9 19:52:32 10° WSW 19:54:39 12° W 19:56:45 10° WNW visible
